Location: Kolin
(50.0330°N, 15.2000°E)
Time: 23:42:40
(UTC+02:00)

ISS - Visible Passes

Search period start: 01 October 2020 00:00
Search period end: 11 October 2020 00:00
Orbit: 419 x 421 km, 51.6° (Epoch: 02 October)

Date Brightness Start Highest point End Pass type
(mag) Time Alt. Az. Time Alt. Az. Time Alt. Az.
01 Oct -3.8 19:29:40 10° WNW 19:33:04 85° NNE 19:35:43 16° ESE visible
01 Oct -1.7 21:06:42 10° W 21:08:41 24° WSW 21:08:41 24° WSW visible
02 Oct -2.9 20:19:18 10° W 20:22:31 41° SSW 20:23:18 34° S visible
03 Oct -3.3 19:31:57 10° WNW 19:35:17 58° SSW 19:37:58 15° SE visible
03 Oct -0.9 21:09:46 10° WSW 21:10:57 13° SW 21:10:57 13° SW visible
04 Oct -1.6 20:21:55 10° W 20:24:28 20° SW 20:25:41 17° S visible
05 Oct -2.0 19:34:21 10° W 19:37:19 29° SSW 19:40:16 10° SSE visible
07 Oct -0.9 19:37:22 10° WSW 19:39:07 14° SW 19:40:51 10° SSW visible
08 Oct -1.2 18:49:26 10° W 18:51:58 20° SW 18:54:30 10° S visible
